2023/08/04 00:00:00, 0.4,21.5
2023/08/04 00:10:00, 0.7,21.5
2023/08/04 00:20:00,---,21.9
2023/08/04 00:30:00,---,21.6
2023/08/04 00:40:00, 1.1,21.8
2023/08/04 00:50:00, 0.0,21.7
2023/08/04 01:00:00, 0.4,21.7
2023/08/04 01:10:00, 0.9,21.7
2023/08/04 01:20:00, 0.0,21.8
2023/08/04 01:30:00, 1.0,21.7
2023/08/04 01:40:00, 0.0,21.8
2023/08/04 01:50:00, 0.4,21.7
2023/08/04 02:00:00, 0.0,21.8
2023/08/04 02:10:00,---,21.9
2023/08/04 02:20:00, 0.5,21.6
2023/08/04 02:30:00, 0.7,21.9
2023/08/04 02:40:00,29.7,21.7
2023/08/04 02:50:00,80.3,21.7
2023/08/04 03:00:00,80.9,21.8
2023/08/04 03:10:00,81.2,21.7
2023/08/04 03:20:00,81.2,21.6
2023/08/04 03:30:00,81.2,21.7
2023/08/04 03:40:00,81.3,21.6
2023/08/04 03:50:00,81.2,21.6
2023/08/04 04:00:00,81.2,21.4
2023/08/04 04:10:00,81.2,21.5
2023/08/04 04:20:00,81.2,21.3
2023/08/04 04:30:00,81.2,21.3
2023/08/04 04:40:00,81.3,21.2
2023/08/04 04:50:00,81.3,21.3
2023/08/04 05:00:00,81.2,21.4
2023/08/04 05:10:00,81.3,21.2
2023/08/04 05:20:00,81.2,21.2
2023/08/04 05:30:00,81.5,21.3
2023/08/04 05:40:00,81.5,21.4
2023/08/04 05:50:00,82.2,21.5
2023/08/04 06:00:00,96.4,21.7
2023/08/04 06:10:00,81.5,21.6
2023/08/04 06:20:00,81.5,21.8
2023/08/04 06:30:00,81.5,21.9
2023/08/04 06:40:00,81.6,21.9
2023/08/04 06:50:00,81.6,21.9
2023/08/04 07:00:00,81.6,21.8
2023/08/04 07:10:00,81.6,21.9
2023/08/04 07:20:00,81.7,22.1
2023/08/04 07:30:00,81.7,22.1
2023/08/04 07:40:00,81.8,22.2
2023/08/04 07:50:00,82.0,25.9
2023/08/04 08:00:00,82.4,28.6
2023/08/04 08:10:00,82.7,30.7
2023/08/04 08:20:00,83.0,30.7
2023/08/04 08:30:00,83.7,30.9
2023/08/04 08:40:00,52.9,31.0
2023/08/04 08:50:00,63.6,30.1
2023/08/04 09:00:00,---,28.5
2023/08/04 09:10:00, 0.0,27.3
2023/08/04 09:20:00, 0.0,27.7
2023/08/04 09:30:00, 0.0,28.3
2023/08/04 09:40:00, 0.0,29.5
2023/08/04 09:50:00, 0.0,29.7
2023/08/04 10:00:00, 0.0,30.1
2023/08/04 10:10:00, 0.0,30.6
2023/08/04 10:20:00,---,30.9
2023/08/04 10:30:00,---,31.2
2023/08/04 10:40:00,---,32.0
2023/08/04 10:50:00,---,31.4
2023/08/04 11:00:00,38.4,32.3
2023/08/04 11:10:00,24.1,32.8
2023/08/04 11:20:00,---,32.3
2023/08/04 11:30:00,---,31.8
2023/08/04 11:40:00, 0.0,32.3
2023/08/04 11:50:00,28.7,33.6
2023/08/04 12:00:00,---,33.9
2023/08/04 12:10:00,35.8,34.1
2023/08/04 12:20:00,72.5,33.6
2023/08/04 12:30:00,31.0,34.8
2023/08/04 12:40:00,42.1,34.9
2023/08/04 12:50:00,65.1,33.6
2023/08/04 13:00:00,65.1,33.9
2023/08/04 13:10:00,82.5,32.6
2023/08/04 13:20:00,82.2,31.6
2023/08/04 13:30:00,82.9,31.3
2023/08/04 13:40:00,64.8,34.2
2023/08/04 13:50:00,82.7,32.6
2023/08/04 14:00:00,82.3,31.2
2023/08/04 14:10:00,82.5,30.7
2023/08/04 14:20:00,---,31.8
2023/08/04 14:30:00,82.5,31.4
2023/08/04 14:40:00,145.9,33.1
2023/08/04 14:50:00,152.7,31.8
2023/08/04 15:00:00, 0.0,30.9
2023/08/04 15:10:00, 0.0,31.2
2023/08/04 15:20:00, 0.0,32.9
2023/08/04 15:30:00, 0.0,30.5
2023/08/04 15:40:00,---,30.1
2023/08/04 15:50:00, 0.0,28.3
2023/08/04 16:00:00, 0.0,28.2
2023/08/04 16:10:00, 0.0,27.7
2023/08/04 16:20:00, 0.0,27.5
2023/08/04 16:30:00,---,27.3
2023/08/04 16:40:00,82.1,27.2
2023/08/04 16:50:00,82.2,27.2
2023/08/04 17:00:00,81.9,26.9
2023/08/04 17:10:00,82.1,27.1
2023/08/04 17:20:00,82.9,26.9
2023/08/04 17:30:00,44.2,26.8
2023/08/04 17:40:00, 0.0,26.4
2023/08/04 17:50:00, 0.0,25.8
2023/08/04 18:00:00, 0.0,25.7
2023/08/04 18:10:00, 0.0,25.2
2023/08/04 18:20:00,45.3,24.8
2023/08/04 18:30:00,81.9,24.5
2023/08/04 18:40:00,81.6,24.7
2023/08/04 18:50:00,81.0,24.3
2023/08/04 19:00:00,80.8,24.0
2023/08/04 19:10:00,80.4,24.0
2023/08/04 19:20:00,79.5,23.7
2023/08/04 19:30:00, 1.7,23.4
2023/08/04 19:40:00,---,23.3
2023/08/04 19:50:00, 0.0,23.1
2023/08/04 20:00:00, 0.0,23.0
2023/08/04 20:10:00, 0.0,22.6
2023/08/04 20:20:00, 0.0,22.6
2023/08/04 20:30:00, 0.0,22.3
2023/08/04 20:40:00, 0.0,22.3
2023/08/04 20:50:00, 0.0,22.1
2023/08/04 21:00:00, 0.0,22.0
2023/08/04 21:10:00, 0.0,21.8
2023/08/04 21:20:00, 0.0,21.9
2023/08/04 21:30:00, 0.0,21.8
2023/08/04 21:40:00, 0.0,21.9
2023/08/04 21:50:00, 0.0,21.6
2023/08/04 22:00:00, 0.0,21.4
2023/08/04 22:10:00, 0.0,21.5
2023/08/04 22:20:00, 0.0,21.4
2023/08/04 22:30:00, 0.0,21.2
2023/08/04 22:40:00, 0.0,21.2
2023/08/04 22:50:00, 0.0,21.0
2023/08/04 23:00:00, 0.0,20.9
2023/08/04 23:10:00,80.0,20.9
2023/08/04 23:20:00,---,21.2
2023/08/04 23:30:00,80.4,20.8
2023/08/04 23:40:00,80.5,20.8
2023/08/04 23:50:00,80.4,20.6
